When you browse on this site, cookies collect data to enhance your experience and personalize the content and advertising you see.
Visit our Privacy Policy to learn more. By continuing to use the site, you agree to this use of cookies and data.
EN

Hourly Weather Kampli

Today, 8 August, Saturday

Time Temperature Precipitation Wind Pressure Humidity
00:00 +27°C° 0 mm 7 mps 721 mmHg 80%
01:00 +27°C° 0 mm 7 mps 721 mmHg 81%
02:00 +27°C° 0 mm 8 mps 720 mmHg 81%
03:00 +27°C° 0 mm 7 mps 720 mmHg 81%
04:00 +27°C° 0 mm 7 mps 720 mmHg 81%
05:00 +27°C° 0 mm 6 mps 720 mmHg 82%
06:00 +27°C° 0.1 mm 7 mps 721 mmHg 81%
07:00 +27°C° 0.1 mm 7 mps 721 mmHg 81%
08:00 +27°C° 0.1 mm 7 mps 721 mmHg 80%
09:00 +28°C° 0.1 mm 7 mps 722 mmHg 77%
10:00 +29°C° 0.1 mm 8 mps 722 mmHg 74%
11:00 +29°C° 0.1 mm 8 mps 722 mmHg 71%
12:00 +29°C° 0.1 mm 8 mps 721 mmHg 71%
13:00 +29°C° 0.1 mm 8 mps 720 mmHg 71%
14:00 +29°C° 0.1 mm 7 mps 720 mmHg 71%
15:00 +29°C° 0 mm 7 mps 719 mmHg 71%
16:00 +29°C° 0 mm 7 mps 719 mmHg 71%
17:00 +29°C° 0 mm 7 mps 719 mmHg 72%
18:00 +28°C° 0 mm 6 mps 720 mmHg 73%
19:00 +28°C° 0 mm 6 mps 720 mmHg 75%
20:00 +27°C° 0 mm 6 mps 721 mmHg 77%
21:00 +27°C° 0 mm 6 mps 721 mmHg 79%
22:00 +27°C° 0 mm 6 mps 721 mmHg 80%
23:00 +27°C° 0 mm 6 mps 721 mmHg 81%

Tomorrow, 9 August, Sunday

Time Temperature Precipitation Wind Pressure Humidity
00:00 +26°C° 0 mm 6 mps 721 mmHg 82%
01:00 +26°C° 0 mm 6 mps 720 mmHg 83%
02:00 +26°C° 0 mm 6 mps 720 mmHg 84%
03:00 +26°C° 0 mm 6 mps 720 mmHg 84%
04:00 +26°C° 0 mm 6 mps 719 mmHg 84%
05:00 +26°C° 0 mm 6 mps 719 mmHg 84%
06:00 +26°C° 0 mm 7 mps 720 mmHg 81%
07:00 +27°C° 0 mm 7 mps 720 mmHg 77%
08:00 +28°C° 0 mm 8 mps 721 mmHg 73%
09:00 +29°C° 0 mm 8 mps 721 mmHg 68%
10:00 +31°C° 0 mm 8 mps 721 mmHg 63%
11:00 +33°C° 0 mm 8 mps 721 mmHg 58%
12:00 +33°C° 0 mm 7 mps 720 mmHg 57%
13:00 +33°C° 0 mm 7 mps 720 mmHg 55%
14:00 +34°C° 0 mm 7 mps 719 mmHg 54%
15:00 +33°C° 0.8 mm 7 mps 719 mmHg 57%
16:00 +32°C° 0.8 mm 7 mps 718 mmHg 59%
17:00 +32°C° 0.8 mm 7 mps 718 mmHg 62%
18:00 +30°C° 0.6 mm 7 mps 719 mmHg 66%
19:00 +29°C° 0.6 mm 8 mps 719 mmHg 70%
20:00 +28°C° 0.6 mm 8 mps 720 mmHg 74%
21:00 +27°C° 0 mm 7 mps 720 mmHg 76%
22:00 +27°C° 0 mm 7 mps 720 mmHg 77%
23:00 +26°C° 0 mm 7 mps 721 mmHg 79%

Day after tomorrow, 10 August, Monday

Time Temperature Precipitation Wind Pressure Humidity
00:00 +26°C° 0 mm 7 mps 720 mmHg 80%
01:00 +26°C° 0 mm 7 mps 720 mmHg 81%
02:00 +26°C° 0 mm 7 mps 720 mmHg 81%
03:00 +26°C° 0 mm 6 mps 719 mmHg 82%
04:00 +26°C° 0 mm 6 mps 719 mmHg 82%
05:00 +24°C° 0 mm 6 mps 719 mmHg 83%
06:00 +26°C° 0 mm 7 mps 720 mmHg 80%
07:00 +27°C° 0 mm 7 mps 720 mmHg 76%
08:00 +28°C° 0 mm 8 mps 721 mmHg 73%
09:00 +28°C° 0 mm 8 mps 721 mmHg 71%
10:00 +29°C° 0 mm 7 mps 721 mmHg 68%
11:00 +30°C° 0 mm 7 mps 721 mmHg 65%
12:00 +30°C° 0.3 mm 7 mps 720 mmHg 65%
13:00 +31°C° 0.3 mm 8 mps 720 mmHg 65%
14:00 +31°C° 0.3 mm 8 mps 719 mmHg 64%
15:00 +31°C° 0.3 mm 8 mps 719 mmHg 67%
16:00 +29°C° 0.3 mm 8 mps 719 mmHg 69%
17:00 +29°C° 0.3 mm 8 mps 719 mmHg 72%
18:00 +28°C° 0 mm 7 mps 719 mmHg 74%
19:00 +28°C° 0 mm 7 mps 720 mmHg 76%
20:00 +27°C° 0 mm 6 mps 720 mmHg 78%
21:00 +27°C° 0 mm 6 mps 721 mmHg 79%
22:00 +27°C° 0 mm 6 mps 721 mmHg 80%
23:00 +26°C° 0 mm 6 mps 721 mmHg 81%

11 August, Tuesday

Time Temperature Precipitation Wind Pressure Humidity
00:00 +26°C° 0.1 mm 6 mps 721 mmHg 82%
01:00 +26°C° 0.1 mm 6 mps 720 mmHg 83%
02:00 +26°C° 0.1 mm 6 mps 720 mmHg 84%
03:00 +26°C° 1 mm 6 mps 720 mmHg 85%
04:00 +24°C° 1 mm 6 mps 720 mmHg 87%
05:00 +24°C° 1 mm 6 mps 720 mmHg 88%
06:00 +24°C° 0.7 mm 6 mps 720 mmHg 88%
07:00 +24°C° 0.7 mm 6 mps 721 mmHg 87%
08:00 +26°C° 0.7 mm 6 mps 721 mmHg 87%
09:00 +26°C° 0.1 mm 7 mps 721 mmHg 84%
10:00 +27°C° 0.1 mm 7 mps 721 mmHg 81%
11:00 +27°C° 0.1 mm 7 mps 722 mmHg 78%
12:00 +27°C° 0 mm 8 mps 721 mmHg 78%
13:00 +27°C° 0 mm 8 mps 720 mmHg 78%
14:00 +27°C° 0 mm 8 mps 720 mmHg 77%
15:00 +27°C° 0.2 mm 7 mps 720 mmHg 79%
16:00 +26°C° 0.2 mm 7 mps 720 mmHg 81%
17:00 +26°C° 0.2 mm 6 mps 720 mmHg 83%
18:00 +26°C° 0.3 mm 6 mps 721 mmHg 84%
19:00 +26°C° 0.3 mm 6 mps 721 mmHg 84%
20:00 +25°C° 0.3 mm 5 mps 722 mmHg 84%
21:00 +25°C° 0.1 mm 5 mps 722 mmHg 85%
22:00 +24°C° 0.1 mm 6 mps 722 mmHg 85%
23:00 +24°C° 0.1 mm 6 mps 723 mmHg 85%

12 August, Wednesday

Time Temperature Precipitation Wind Pressure Humidity
00:00 +24°C° 0.1 mm 6 mps 722 mmHg 86%
01:00 +25°C° 0.1 mm 5 mps 721 mmHg 86%
02:00 +25°C° 0.1 mm 5 mps 721 mmHg 87%
03:00 +25°C° 0.1 mm 5 mps 721 mmHg 86%
04:00 +24°C° 0.1 mm 6 mps 721 mmHg 85%
05:00 +24°C° 0.1 mm 6 mps 721 mmHg 85%
06:00 +24°C° 0.3 mm 6 mps 721 mmHg 85%
07:00 +25°C° 0.3 mm 5 mps 722 mmHg 86%
08:00 +25°C° 0.3 mm 5 mps 722 mmHg 87%
09:00 +25°C° 0.4 mm 5 mps 722 mmHg 85%
10:00 +24°C° 0.4 mm 6 mps 722 mmHg 84%
11:00 +26°C° 0.4 mm 6 mps 723 mmHg 83%
12:00 +26°C° 0.5 mm 6 mps 722 mmHg 84%
13:00 +26°C° 0.5 mm 6 mps 722 mmHg 84%
14:00 +26°C° 0.5 mm 5 mps 721 mmHg 84%
15:00 +26°C° 0.4 mm 5 mps 721 mmHg 84%
16:00 +26°C° 0.4 mm 5 mps 721 mmHg 84%
17:00 +26°C° 0.4 mm 5 mps 721 mmHg 84%
18:00 +25°C° 0.1 mm 5 mps 722 mmHg 85%
19:00 +25°C° 0.1 mm 5 mps 722 mmHg 85%
20:00 +25°C° 0.1 mm 5 mps 723 mmHg 86%
21:00 +25°C° 0 mm 5 mps 723 mmHg 85%
22:00 +25°C° 0 mm 5 mps 723 mmHg 85%
23:00 +25°C° 0 mm 5 mps 723 mmHg 85%

13 August, Thursday

Time Temperature Precipitation Wind Pressure Humidity
00:00 +25°C° 0 mm 5 mps 722 mmHg 85%
01:00 +24°C° 0 mm 6 mps 722 mmHg 85%
02:00 +24°C° 0 mm 6 mps 721 mmHg 86%
03:00 +24°C° 0 mm 6 mps 721 mmHg 86%
04:00 +24°C° 0 mm 6 mps 721 mmHg 86%
05:00 +25°C° 0 mm 5 mps 721 mmHg 86%
06:00 +24°C° 0 mm 6 mps 721 mmHg 84%
07:00 +26°C° 0 mm 7 mps 722 mmHg 82%
08:00 +26°C° 0 mm 7 mps 722 mmHg 79%
09:00 +27°C° 0 mm 7 mps 722 mmHg 75%
10:00 +28°C° 0 mm 7 mps 722 mmHg 71%
11:00 +29°C° 0 mm 7 mps 722 mmHg 67%
12:00 +29°C° 0.2 mm 7 mps 722 mmHg 66%
13:00 +31°C° 0.2 mm 8 mps 721 mmHg 65%
14:00 +31°C° 0.2 mm 8 mps 720 mmHg 64%
15:00 +29°C° 0.2 mm 7 mps 720 mmHg 67%
16:00 +29°C° 0.2 mm 6 mps 720 mmHg 70%
17:00 +28°C° 0.2 mm 6 mps 720 mmHg 73%
18:00 +27°C° 0.3 mm 6 mps 721 mmHg 75%
19:00 +27°C° 0.3 mm 5 mps 721 mmHg 78%
20:00 +26°C° 0.3 mm 5 mps 722 mmHg 81%
21:00 +26°C° 0 mm 5 mps 722 mmHg 81%
22:00 +26°C° 0 mm 5 mps 722 mmHg 82%
23:00 +26°C° 0 mm 5 mps 722 mmHg 83%
Show more